STARLINK-32677, 63020

Orbit data source: Space-Track

STARLINK-32677, 63020 is a payload satellite owned by SpaceX/Seattle (US) in LEO that was launched on Sat, 15 Feb 2025 UTC via an FALCON 9 launch vehicle from the Air Force Eastern Test Range (AFETR). Payload-class satellites include a variety of spacecraft equipped with specific instruments for various scientific and technological missions. These include communications satellites like Starlink; space stations such as the ISS; scientific satellites like the Hubble; Earth observation satellites from companies like Planet Labs, Umbra, and HawkEye 360; GPS; miniature CubeSats for education and research; and military/defense satellites.

Loading next visibility...
Identifier
63020, 2025-032R
Orbit
LEO
Country
Flag of USUS
Related business
Manufacturer
SpaceX/Seattle
Mission
Operational Commercial Communications
Bus & Motor
STARLINK V2M, Unknown motor
Mass
730 kg wet, ~700 kg dry
Launch date (UTC)
2025-02-15 (8 months ago)
Launch vehicle
FALCON 9
Launch site
Air Force Eastern Test Range (AFETR)
Object type
Payload
Rocket body
Debris
Shape & HBR
Box + 2 Pan, 17.7 m
Radar Cross Section
33.884 m², Large (>1 m²)

Expand to show TLE details & history
Last TLE update: 15 hours ago

TLE from 15 hours ago
0 STARLINK-32677
1 63020U 25032R   25301.57682012  .00038945  00000-0  14155-2 0  9992
2 63020  43.0046   2.2766 0001461 269.2696  90.7988 15.27621522 40407
Epoch: 2025-10-28T13:50Z
TLE epoch observation values (Epoch: 2025-10-28T13:50:37.258Z)
Latitude
-0.00004°
Longitude
117.459°
Altitude
482.715 km
Speed
7.626 km/s
True Right ascension
00h 09m 06s
True Declination
0° 00' 00"
Sunlit
Object was in full shadow at epoch
Visualization orbit readout
Latitude
Unknown
Longitude
Unknown
Altitude
Unknown
Speed
Unknown
Apparent Right ascension
Unknown
Apparent Declination
Unknown
Sunlit
N/A
Visualization observer readout
Local Sidereal Time
23:54:08
Azimuth
Unknown
Elevation
Unknown
Doppler factor
Unknown
Orbital elements
Apogee altitude
485.872 km
Perigee altitude
483.867 km
Semi-major axis
6,863.006 km
Eccentricity
0.00015
Inclination
43.0046°
RAAN
2.2766°
Arg. of periapsis
269.2696°
True anomaly
90.81554°
Mean anomaly
90.7988°
Eccentric anomaly
90.80717°
Mean motion
3.81743 °/min
Orbital period
94.3 mins
BSTAR
0.0014155
Loading maneuver chart data...
Computing Atmospheric mass density...
Loading historical data...
Loading historical data...
Loading historical data...
Loading historical data...
Loading historical data...
Loading historical data...
Loading historical data...

Documentation

Showing up to 5 results
|